DW5010 Weather Reports


Display with metric or nautical units.
time (UTC)temp
F
wind
direction
speed
MPH
gust
MPH
rain 1hr
in
rain 24hr
in
rain mn
in
humidity
%
barometer
mb
20260903125018 75 211 1.0 5.0 0.00 0.29 0.29 96 1012.3
20260903124540 74 0 0.0 0.0 0.00 0.29 0.29 96 1012.1
20260903124018 74 0 0.0 0.0 0.00 0.29 0.29 96 1012.2
20260903123518 74 0 0.0 0.0 0.00 0.29 0.29 96 1012.2
20260903123036 74 0 0.0 0.0 0.00 0.29 0.29 96 1012.3
20260903122521 73 0 0.0 0.0 0.00 0.29 0.29 96 1012.3
20260903122019 73 0 0.0 0.0 0.00 0.29 0.29 96 1012.3
20260903121536 73 0 0.0 0.0 0.00 0.29 0.29 96 1012.3
20260903121018 73 0 0.0 0.0 0.00 0.29 0.29 96 1012.3
20260903120516 73 0 0.0 0.0 0.00 0.29 0.29 96 1012.4
20260903120034 72 0 0.0 0.0 0.00 0.29 0.29 96 1012.4
20260903115518 72 0 0.0 0.0 0.00 0.29 0.29 96 1012.3
20260903115023 72 0 0.0 0.0 0.00 0.29 0.29 96 1012.3
20260903114539 72 0 0.0 0.0 0.00 0.29 0.29 95 1012.3
20260903114017 72 0 0.0 0.0 0.00 0.29 0.29 96 1012.3
20260903113518 72 0 0.0 0.0 0.00 0.29 0.29 96 1012.4
20260903113034 72 0 0.0 0.0 0.00 0.29 0.29 96 1012.4
20260903112516 72 0 0.0 0.0 0.00 0.29 0.29 96 1012.5
20260903112020 71 0 0.0 0.0 0.00 0.29 0.29 96 1012.4
20260903111557 71 0 0.0 0.0 0.00 0.29 0.29 95 1012.5
20260903111016 71 0 0.0 0.0 0.00 0.29 0.29 95 1012.4
20260903110516 71 0 0.0 0.0 0.00 0.29 0.29 95 1012.4
20260903110041 71 0 0.0 0.0 0.00 0.29 0.29 95 1012.4
20260903105519 71 0 0.0 0.0 0.00 0.29 0.29 95 1012.3
20260903105018 71 0 0.0 0.0 0.00 0.29 0.29 95 1012.4
20260903104547 71 0 0.0 0.0 0.00 0.29 0.29 95 1012.3
20260903104016 71 0 0.0 0.0 0.00 0.29 0.29 95 1012.3
20260903103516 71 0 0.0 0.0 0.00 0.29 0.29 94 1012.4
20260903103034 71 0 0.0 0.0 0.00 0.29 0.29 95 1012.4
20260903102516 71 0 0.0 0.0 0.00 0.29 0.29 95 1012.4
20260903102016 71 0 0.0 0.0 0.00 0.29 0.29 95 1012.4
20260903101543 71 0 0.0 0.0 0.00 0.29 0.29 95 1012.5
20260903101019 71 0 0.0 0.0 0.00 0.29 0.29 94 1012.5
20260903100519 72 0 0.0 0.0 0.00 0.29 0.29 94 1012.5
20260903100040 72 0 0.0 0.0 0.00 0.29 0.29 95 1012.5
20260903095517 72 0 0.0 0.0 0.00 0.29 0.29 95 1012.6
20260903095016 72 0 0.0 0.0 0.00 0.29 0.29 95 1012.6
20260903094536 72 0 0.0 0.0 0.00 0.29 0.29 95 1012.7
20260903094019 72 0 0.0 0.0 0.00 0.29 0.29 95 1012.7
20260903093524 72 0 0.0 0.0 0.00 0.29 0.29 95 1012.7
20260903093041 72 0 0.0 0.0 0.00 0.29 0.29 95 1012.7
20260903092516 72 0 0.0 0.0 0.00 0.29 0.29 95 1012.7
20260903092016 72 0 0.0 0.0 0.00 0.29 0.29 94 1012.6
20260903091534 72 0 0.0 0.0 0.00 0.29 0.29 94 1012.6
20260903091017 72 0 0.0 0.0 0.00 0.29 0.29 94 1012.5
20260903090518 72 0 0.0 0.0 0.00 0.29 0.29 94 1012.6
20260903090047 72 0 0.0 0.0 0.00 0.29 0.29 94 1012.4
20260903085517 72 0 0.0 0.0 0.00 0.29 0.29 94 1012.7
20260903085017 72 0 0.0 0.0 0.00 0.29 0.29 94 1012.6
20260903084536 72 0 0.0 0.0 0.00 0.29 0.29 94 1012.5
20260903084018 72 0 0.0 0.0 0.00 0.29 0.29 94 1012.6
20260903083519 72 0 0.0 0.0 0.00 0.29 0.29 94 1012.6
20260903083037 72 0 0.0 0.0 0.00 0.29 0.29 94 1012.6
20260903082519 73 0 0.0 0.0 0.00 0.29 0.29 94 1012.5
20260903082017 73 0 0.0 0.0 0.00 0.29 0.29 94 1012.6
20260903081535 73 0 0.0 0.0 0.00 0.29 0.29 94 1012.5
20260903081020 73 0 0.0 0.0 0.00 0.29 0.29 94 1012.5
20260903080517 72 0 0.0 0.0 0.17 0.29 0.29 93 1012.5
20260903080038 73 0 0.0 0.0 0.29 0.29 0.29 93 1012.4
20260903075519 73 0 0.0 0.0 0.29 0.29 0.29 93 1012.4
20260903075019 73 0 0.0 0.0 0.29 0.29 0.29 93 1012.5
20260903074537 73 0 0.0 0.0 0.29 0.29 0.29 93 1012.5
20260903074016 73 0 0.0 0.0 0.29 0.29 0.29 92 1012.4
20260903073521 73 0 0.0 0.0 0.29 0.29 0.29 92 1012.4
20260903073043 73 0 0.0 2.0 0.29 0.29 0.29 92 1012.4
20260903072517 73 0 0.0 3.0 0.29 0.29 0.29 92 1012.5
20260903072016 73 246 1.0 7.0 0.29 0.29 0.29 91 1012.4
20260903071537 73 245 0.0 29.0 0.29 0.29 0.29 91 1012.3
20260903071017 73 154 5.0 29.0 0.28 0.28 0.28 90 1012.4
20260903070519 74 148 3.0 12.0 0.03 0.03 0.03 93 1014.3
20260903070043 74 0 0.0 0.0 0.00 0.00 0.00 92 1012.5
20260903065517 74 0 0.0 0.0 0.00 0.00 0.00 92 1012.5
20260903065018 75 0 0.0 0.0 0.00 0.00 0.00 92 1012.5
20260903064533 75 0 0.0 0.0 0.00 0.00 0.00 92 1012.6
20260903064016 75 0 0.0 0.0 0.00 0.00 0.00 92 1012.7
20260903063516 75 0 0.0 0.0 0.00 0.00 0.00 93 1012.7
20260903063035 75 0 0.0 0.0 0.00 0.00 0.00 93 1012.8
20260903062520 75 0 0.0 0.0 0.00 0.00 0.00 93 1012.7
20260903062019 76 0 0.0 0.0 0.00 0.00 0.00 93 1012.6
20260903061554 76 0 0.0 0.0 0.00 0.00 0.00 92 1012.7
20260903061019 76 0 0.0 0.0 0.00 0.00 0.00 92 1012.9
20260903060519 76 0 0.0 0.0 0.00 0.00 0.00 92 1012.8
20260903060039 76 0 0.0 0.0 0.00 0.00 0.00 92 1012.7
20260903055516 76 0 0.0 0.0 0.00 0.00 0.00 92 1012.7
20260903055017 76 0 0.0 0.0 0.00 0.00 0.00 92 1012.8
20260903054535 76 0 0.0 0.0 0.00 0.00 0.00 92 1012.8
20260903054016 76 0 0.0 0.0 0.00 0.00 0.00 92 1012.8
20260903053516 77 0 0.0 0.0 0.00 0.00 0.00 92 1012.8
20260903053035 77 0 0.0 0.0 0.00 0.00 0.00 92 1012.9
20260903052516 77 0 0.0 0.0 0.00 0.00 0.00 91 1012.9
20260903052016 77 0 0.0 0.0 0.00 0.00 0.00 92 1012.8
20260903051541 77 0 0.0 0.0 0.00 0.00 0.00 92 1012.9
20260903051021 77 0 0.0 0.0 0.00 0.00 0.00 92 1012.8
20260903050520 77 0 0.0 1.0 0.00 0.00 0.00 92 1012.8
20260903050042 77 0 0.0 1.0 0.00 0.00 0.00 92 1012.7
20260903045516 77 0 0.0 0.0 0.00 0.00 0.00 92 1012.7
20260903045015 77 0 0.0 0.0 0.00 0.00 0.00 92 1012.7
20260903044533 77 0 0.0 0.0 0.00 0.00 0.00 92 1012.5
20260903044018 77 0 0.0 0.0 0.00 0.00 0.00 92 1012.5
20260903043515 77 0 0.0 0.0 0.00 0.00 0.00 92 1012.5
20260903043042 77 0 0.0 0.0 0.00 0.00 0.00 92 1012.4
20260903042517 77 0 0.0 0.0 0.00 0.00 0.00 92 1012.4
20260903042017 77 0 0.0 0.0 0.00 0.00 0.00 92 1012.5
20260903041539 77 0 0.0 0.0 0.00 0.00 0.00 92 1012.4
20260903041018 77 0 0.0 0.0 0.00 0.00 0.00 92 1012.3
20260903040516 77 0 0.0 0.0 0.00 0.00 0.00 91 1012.4
20260903040037 77 0 0.0 0.0 0.00 0.00 0.00 91 1012.4
20260903035522 77 0 0.0 0.0 0.00 0.00 0.00 91 1012.4
20260903035015 77 0 0.0 0.0 0.00 0.00 0.00 91 1012.4
20260903034533 76 0 0.0 0.0 0.00 0.00 0.00 91 1012.4
20260903034017 76 0 0.0 0.0 0.00 0.00 0.00 91 1012.3
20260903033524 76 0 0.0 0.0 0.00 0.00 0.00 91 1012.5
20260903033043 76 0 0.0 0.0 0.00 0.00 0.00 91 1012.4
20260903032520 76 0 0.0 0.0 0.00 0.00 0.00 90 1012.4
20260903032016 76 0 0.0 0.0 0.00 0.00 0.00 89 1012.5
20260903031534 76 0 0.0 0.0 0.00 0.00 0.00 89 1012.5
20260903031019 76 0 0.0 0.0 0.00 0.00 0.00 89 1012.5
20260903030519 76 0 0.0 0.0 0.00 0.00 0.00 89 1012.4
20260903025523 77 0 0.0 0.0 0.00 0.00 0.00 88 1012.5
20260903025016 77 0 0.0 0.0 0.00 0.00 0.00 88 1012.5
20260903024537 77 0 0.0 0.0 0.00 0.00 0.00 88 1012.5
20260903024019 77 0 0.0 0.0 0.00 0.00 0.00 88 1012.5
20260903023517 77 0 0.0 0.0 0.00 0.00 0.00 88 1012.5
20260903023038 77 0 0.0 0.0 0.00 0.00 0.00 87 1012.4
20260903022520 77 0 0.0 0.0 0.00 0.00 0.00 87 1012.4
20260903022018 77 0 0.0 0.0 0.00 0.00 0.00 87 1012.3
20260903021536 78 0 0.0 0.0 0.00 0.00 0.00 86 1012.4
20260903021017 78 0 0.0 0.0 0.00 0.00 0.00 86 1012.4
20260903020518 78 0 0.0 0.0 0.00 0.00 0.00 86 1012.3
20260903020037 78 0 0.0 0.0 0.00 0.00 0.00 86 1012.3
20260903015518 78 0 0.0 0.0 0.00 0.00 0.00 85 1012.3
20260903015017 78 0 0.0 0.0 0.00 0.00 0.00 85 1012.4
20260903014535 79 0 0.0 0.0 0.00 0.00 0.00 84 1012.3
20260903014017 79 0 0.0 0.0 0.00 0.00 0.00 84 1012.3
20260903013516 79 0 0.0 0.0 0.00 0.00 0.00 83 1012.2
20260903013043 79 0 0.0 0.0 0.00 0.00 0.00 82 1012.1
20260903012519 80 0 0.0 0.0 0.00 0.00 0.00 82 1012.0
20260903012019 80 0 0.0 0.0 0.00 0.00 0.00 81 1011.9
20260903011533 80 0 0.0 0.0 0.00 0.00 0.00 81 1011.9
20260903011016 81 0 0.0 0.0 0.00 0.00 0.00 80 1011.9
20260903010518 81 0 0.0 0.0 0.00 0.00 0.00 78 1011.7
20260903010036 82 0 0.0 0.0 0.00 0.00 0.00 78 1011.7
20260903005516 82 0 0.0 0.0 0.00 0.00 0.00 77 1011.6
20260903005018 82 0 0.0 0.0 0.00 0.00 0.00 76 1011.5
20260903004536 83 0 0.0 0.0 0.00 0.00 0.00 75 1011.5
20260903004017 83 0 0.0 0.0 0.00 0.00 0.00 75 1011.5
20260903003520 84 0 0.0 2.0 0.00 0.00 0.00 74 1011.5
20260903003040 84 0 0.0 3.0 0.00 0.00 0.00 74 1011.5
20260903002518 84 228 0.0 3.0 0.00 0.00 0.00 73 1011.5
20260903002018 85 225 1.0 3.0 0.00 0.00 0.00 73 1011.6
20260903001537 85 0 0.0 2.0 0.00 0.00 0.00 72 1011.6
20260903001018 85 202 0.0 3.0 0.00 0.00 0.00 72 1011.5
20260903000516 86 250 0.0 4.0 0.00 0.00 0.00 71 1011.5
20260903000039 86 0 1.0 4.0 0.00 0.00 0.00 70 1011.5
20260902235517 86 223 1.0 7.0 0.00 0.00 0.00 70 1011.6
20260902235018 86 277 2.0 7.0 0.00 0.00 0.00 69 1011.7
20260902234539 87 182 2.0 5.0 0.00 0.00 0.00 69 1011.7
20260902234022 87 243 2.0 4.0 0.00 0.00 0.00 69 1011.7
20260902233519 87 221 2.0 4.0 0.00 0.00 0.00 70 1011.6
20260902233037 86 238 0.0 7.0 0.00 0.00 0.00 70 1011.6
20260902232522 86 246 1.0 7.0 0.00 0.00 0.00 70 1011.7
20260902232018 87 0 0.0 4.0 0.00 0.00 0.00 70 1011.6
20260902231543 87 259 1.0 4.0 0.00 0.00 0.00 70 1011.7
20260902231019 87 230 2.0 4.0 0.00 0.00 0.00 69 1011.7
20260902230518 87 263 2.0 5.0 0.00 0.00 0.00 69 1011.7
20260902230035 87 178 1.0 5.0 0.00 0.00 0.00 69 1011.6
20260902225519 87 285 1.0 4.0 0.00 0.00 0.00 68 1011.7
20260902225021 87 238 1.0 7.0 0.00 0.00 0.00 68 1011.6
20260902224551 87 201 2.0 7.0 0.00 0.00 0.00 68 1011.7
20260902224024 87 244 2.0 7.0 0.00 0.00 0.00 67 1011.7
20260902223520 87 303 2.0 7.0 0.00 0.00 0.00 67 1011.7
20260902223048 87 269 3.0 8.0 0.00 0.00 0.00 67 1011.7
20260902222522 87 256 2.0 8.0 0.00 0.00 0.00 67 1011.9
20260902222023 88 0 2.0 10.0 0.00 0.00 0.00 66 1011.7
20260902221549 88 279 2.0 10.0 0.00 0.00 0.00 66 1012.0
20260902221016 88 304 2.0 8.0 0.00 0.00 0.00 66 1012.0
20260902220519 88 229 3.0 8.0 0.00 0.00 0.00 64 1011.9
20260902220054 88 265 2.0 9.0 0.00 0.00 0.00 66 1011.8
20260902215518 88 253 3.0 10.0 0.00 0.01 0.00 65 1012.0
20260902215015 88 219 3.0 10.0 0.00 0.01 0.00 64 1011.9
20260902214540 88 239 4.0 9.0 0.00 0.01 0.00 64 1011.9
20260902214019 88 245 5.0 9.0 0.00 0.01 0.00 62 1012.1
20260902213520 88 252 3.0 10.0 0.00 0.01 0.00 62 1012.2
20260902213040 89 207 4.0 10.0 0.00 0.01 0.00 61 1012.0
20260902212519 89 246 2.0 7.0 0.00 0.01 0.00 61 1011.9
20260902212019 89 250 4.0 8.0 0.00 0.01 0.00 61 1011.8
20260902211539 89 252 3.0 13.0 0.00 0.01 0.00 61 1011.9
20260902211020 89 273 5.0 13.0 0.00 0.01 0.00 61 1011.9
20260902210518 89 232 5.0 10.0 0.00 0.01 0.00 61 1011.9
20260902210046 89 169 4.0 10.0 0.00 0.01 0.00 61 1012.0
20260902205515 89 227 4.0 11.0 0.00 0.06 0.00 59 1012.1
20260902205019 89 225 5.0 11.0 0.00 0.06 0.00 60 1012.1
20260902204547 90 243 4.0 8.0 0.00 0.06 0.00 63 1012.0
20260902204017 90 250 4.0 9.0 0.00 0.06 0.00 64 1011.9
20260902203519 89 230 3.0 9.0 0.00 0.06 0.00 65 1011.8
20260902203043 89 171 5.0 9.0 0.00 0.06 0.00 64 1011.8
20260902202517 89 222 2.0 9.0 0.00 0.06 0.00 66 1011.9
20260902202020 89 277 5.0 9.0 0.00 0.06 0.00 64 1012.0
20260902201545 89 179 3.0 9.0 0.00 0.06 0.00 65 1011.9
20260902201015 89 212 2.0 8.0 0.00 0.06 0.00 64 1011.9
20260902200518 89 194 3.0 8.0 0.00 0.06 0.00 64 1012.0
20260902200041 89 185 4.0 8.0 0.00 0.06 0.00 65 1012.0
20260902195516 89 157 4.0 9.0 0.00 0.06 0.00 66 1012.2
20260902195018 89 191 2.0 9.0 0.00 0.06 0.00 66 1012.2
20260902194536 89 260 4.0 9.0 0.00 0.06 0.00 65 1012.3
20260902194018 89 206 5.0 12.0 0.00 0.06 0.00 64 1012.3
20260902193521 89 180 4.0 12.0 0.00 0.06 0.00 63 1012.2
20260902193044 89 241 6.0 12.0 0.00 0.06 0.00 63 1012.2
20260902192516 89 188 3.0 8.0 0.00 0.06 0.00 65 1012.4
20260902192019 89 324 2.0 6.0 0.00 0.06 0.00 68 1012.5
20260902191534 89 224 2.0 6.0 0.00 0.06 0.00 67 1012.4
20260902191019 89 194 1.0 6.0 0.00 0.06 0.00 68 1012.4
20260902190517 89 219 1.0 7.0 0.00 0.06 0.00 67 1012.5
20260902190040 88 229 4.0 7.0 0.00 0.06 0.00 68 1012.5
20260902185521 88 162 2.0 7.0 0.00 0.06 0.00 70 1012.5
20260902185018 87 0 1.0 8.0 0.00 0.06 0.00 70 1012.8
20260902184544 87 225 4.0 8.0 0.00 0.06 0.00 69 1012.7
20260902184017 87 217 3.0 7.0 0.00 0.06 0.00 68 1012.6
20260902183520 87 190 2.0 7.0 0.00 0.06 0.00 68 1012.7
20260902183042 87 192 1.0 5.0 0.00 0.06 0.00 69 1012.8
20260902182517 87 311 3.0 6.0 0.00 0.06 0.00 68 1012.8
20260902182016 87 184 2.0 7.0 0.00 0.06 0.00 66 1012.8
20260902181534 87 233 2.0 7.0 0.00 0.06 0.00 67 1012.9
20260902181118 87 182 3.0 6.0 0.00 0.06 0.00 67 1012.9
20260902180519 86 177 2.0 6.0 0.00 0.06 0.00 67 1013.0
20260902180040 86 217 2.0 7.0 0.00 0.06 0.00 66 1012.8
20260902175521 86 0 0.0 7.0 0.00 0.06 0.00 67 1013.0
20260902175021 86 193 2.0 5.0 0.00 0.06 0.00 65 1013.1
20260902174539 86 256 2.0 4.0 0.00 0.06 0.00 66 1013.2
20260902174021 86 233 2.0 6.0 0.00 0.06 0.00 66 1013.2
20260902173520 86 174 1.0 6.0 0.00 0.06 0.00 68 1013.1
20260902173038 86 266 0.0 5.0 0.00 0.06 0.00 64 1013.3
20260902172521 86 0 1.0 5.0 0.00 0.06 0.00 64 1013.2
20260902172016 87 249 1.0 5.0 0.00 0.06 0.00 64 1013.2
20260902171551 86 209 2.0 5.0 0.00 0.06 0.00 65 1013.3
20260902171021 86 173 2.0 5.0 0.00 0.06 0.00 66 1013.3
20260902170520 86 123 2.0 5.0 0.00 0.06 0.00 65 1013.4
20260902170039 86 82 1.0 5.0 0.00 0.06 0.00 63 1013.3
20260902165517 86 194 1.0 4.0 0.00 0.06 0.00 64 1013.2
20260902165019 86 211 1.0 4.0 0.00 0.06 0.00 65 1013.4
20260902164537 85 0 1.0 4.0 0.00 0.06 0.00 66 1013.5
20260902164018 85 212 1.0 4.0 0.00 0.06 0.00 67 1013.5
20260902163516 84 302 0.0 4.0 0.00 0.06 0.00 68 1013.4
20260902163040 84 214 0.0 4.0 0.00 0.06 0.00 68 1013.7
20260902162515 84 279 1.0 6.0 0.00 0.06 0.00 70 1013.6
20260902162021 84 220 3.0 6.0 0.00 0.06 0.00 67 1013.4
20260902161540 84 0 1.0 6.0 0.00 0.06 0.00 68 1013.2
20260902161018 83 0 1.0 7.0 0.00 0.06 0.00 69 1013.0
20260902160517 83 115 1.0 7.0 0.00 0.06 0.00 68 1012.9
20260902160036 83 129 3.0 7.0 0.00 0.06 0.00 68 1012.9
20260902155517 83 125 2.0 6.0 0.00 0.06 0.00 70 1013.0
20260902155019 82 91 2.0 6.0 0.00 0.06 0.00 69 1013.1
20260902154534 82 63 1.0 4.0 0.00 0.06 0.00 71 1013.1
20260902154018 81 108 1.0 4.0 0.00 0.06 0.00 71 1013.4
20260902153519 81 93 1.0 4.0 0.00 0.06 0.00 71 1013.4
20260902153047 80 123 2.0 4.0 0.00 0.06 0.00 71 1013.4
20260902152518 80 94 1.0 4.0 0.00 0.06 0.00 73 1013.4
20260902152018 80 0 0.0 3.0 0.00 0.06 0.00 72 1013.5
20260902151540 80 0 1.0 3.0 0.00 0.06 0.00 71 1013.6
20260902151022 80 90 1.0 3.0 0.00 0.06 0.00 71 1013.7
20260902150517 79 121 1.0 4.0 0.00 0.06 0.00 74 1013.6
20260902150040 79 0 0.0 4.0 0.00 0.06 0.00 74 1013.6
20260902145517 78 78 0.0 4.0 0.00 0.06 0.00 73 1013.6
20260902145018 78 132 1.0 4.0 0.00 0.06 0.00 73 1013.6
20260902144533 78 136 1.0 4.0 0.00 0.06 0.00 75 1013.7
20260902144016 77 109 1.0 6.0 0.00 0.06 0.00 75 1013.7
20260902143516 77 109 1.0 6.0 0.00 0.06 0.00 75 1013.7
20260902143035 77 0 2.0 6.0 0.00 0.06 0.00 74 1013.7
20260902142518 77 130 1.0 4.0 0.00 0.06 0.00 76 1013.7
20260902142021 76 117 2.0 4.0 0.00 0.06 0.00 76 1013.8
20260902141537 76 103 1.0 3.0 0.00 0.06 0.00 77 1013.8
20260902141017 76 348 0.0 3.0 0.00 0.06 0.00 80 1014.0
20260902140520 76 134 1.0 3.0 0.00 0.06 0.00 76 1014.0
20260902140035 76 0 0.0 4.0 0.00 0.06 0.00 76 1014.1
20260902135519 76 0 1.0 5.0 0.00 0.06 0.00 75 1014.2
20260902135018 76 115 0.0 5.0 0.00 0.06 0.00 76 1013.9
20260902134542 76 39 1.0 5.0 0.00 0.06 0.00 76 1013.8
20260902134018 76 67 0.0 4.0 0.00 0.06 0.00 77 1014.0
20260902133516 75 0 1.0 5.0 0.00 0.06 0.00 78 1014.0
20260902133037 75 78 1.0 5.0 0.00 0.06 0.00 78 1014.1
20260902132520 75 0 0.0 7.0 0.00 0.06 0.00 79 1014.0
20260902132018 75 84 1.0 7.0 0.00 0.06 0.00 78 1014.1
20260902131543 75 343 0.0 5.0 0.00 0.06 0.00 78 1014.4
20260902131019 75 80 2.0 5.0 0.00 0.06 0.00 79 1014.3
20260902130518 75 64 2.0 5.0 0.00 0.06 0.00 79 1014.5
20260902130041 75 5 0.0 2.0 0.00 0.06 0.00 81 1014.4
20260902125524 75 0 0.0 2.0 0.00 0.06 0.00 81 1014.4